TimeHST,TemperatureF,Dew PointF,Humidity,Sea Level PressureIn,VisibilityMPH,Wind Direction,Wind SpeedMPH,Gust SpeedMPH,PrecipitationIn,Events,Conditions,WindDirDegrees,DateUTC
12:54 AM,64.0,60.1,87,30.11,10.0,South,3.5,-,N/A,,Clear,190,2013-02-09 10:54:00
1:54 AM,63.0,60.1,90,30.10,10.0,Calm,Calm,-,N/A,,Clear,0,2013-02-09 11:54:00
2:54 AM,62.1,57.9,86,30.09,10.0,South,3.5,-,N/A,,Clear,180,2013-02-09 12:54:00
3:54 AM,61.0,57.9,90,30.09,10.0,Calm,Calm,-,N/A,,Clear,0,2013-02-09 13:54:00
4:54 AM,-9999,-9999,N/A,30.09,10.0,Calm,Calm,-,N/A,,Clear,0,2013-02-09 14:54:00
5:54 AM,59.0,57.2,94,30.11,10.0,Calm,Calm,-,N/A,,Clear,0,2013-02-09 15:54:00
6:54 AM,59.0,57.2,94,30.13,10.0,Calm,Calm,-,N/A,,Partly Cloudy,0,2013-02-09 16:54:00
7:54 AM,68.0,63.0,84,30.14,10.0,North,4.6,-,N/A,,Scattered Clouds,10,2013-02-09 17:54:00
8:54 AM,73.9,66.0,76,30.15,10.0,NE,10.4,-,N/A,,Scattered Clouds,40,2013-02-09 18:54:00
9:54 AM,75.9,66.0,71,30.16,10.0,NE,13.8,18.4,N/A,,Scattered Clouds,40,2013-02-09 19:54:00
10:54 AM,75.0,66.0,73,30.16,10.0,NE,15.0,-,0.00,,Scattered Clouds,50,2013-02-09 20:54:00
11:54 AM,77.0,64.0,64,30.14,10.0,NE,17.3,-,0.00,,Scattered Clouds,50,2013-02-09 21:54:00
12:54 PM,79.0,64.9,62,30.12,10.0,NE,17.3,-,N/A,,Scattered Clouds,50,2013-02-09 22:54:00
1:54 PM,77.0,64.0,64,30.09,10.0,NE,21.9,26.5,N/A,,Scattered Clouds,40,2013-02-09 23:54:00
2:54 PM,78.1,64.0,62,30.08,10.0,ENE,15.0,-,N/A,,Scattered Clouds,70,2013-02-10 00:54:00
3:54 PM,78.1,64.9,64,30.07,10.0,NE,19.6,26.5,N/A,,Partly Cloudy,40,2013-02-10 01:54:00
4:54 PM,77.0,64.9,66,30.08,10.0,NE,21.9,28.8,N/A,,Scattered Clouds,50,2013-02-10 02:54:00
5:54 PM,73.9,64.9,73,30.10,10.0,NE,17.3,25.3,N/A,,Partly Cloudy,50,2013-02-10 03:54:00
6:54 PM,72.0,64.9,78,30.13,10.0,NE,16.1,-,N/A,,Partly Cloudy,50,2013-02-10 04:54:00
7:54 PM,72.0,64.0,76,30.15,10.0,ENE,9.2,-,N/A,,Mostly Cloudy,70,2013-02-10 05:54:00
8:10 PM,71.6,66.2,83,30.14,10.0,ENE,10.4,-,0.00,,Overcast,70,2013-02-10 06:10:00
8:20 PM,69.8,66.2,88,30.14,10.0,East,10.4,-,0.00,Rain,Light Rain,100,2013-02-10 06:20:00
8:54 PM,71.1,64.0,78,30.17,10.0,NE,12.7,-,0.01,,Scattered Clouds,50,2013-02-10 06:54:00
9:54 PM,72.0,64.0,76,30.17,10.0,NE,17.3,26.5,N/A,,Partly Cloudy,50,2013-02-10 07:54:00
10:54 PM,72.0,64.0,76,30.17,10.0,NE,13.8,-,N/A,,Mostly Cloudy,50,2013-02-10 08:54:00
11:54 PM,71.1,63.0,75,30.17,10.0,NE,13.8,-,N/A,,Clear,50,2013-02-10 09:54:00